Orbital Elements
Epoch 2000 May 16.0 TT = JDT 2451680.5
T 2000 June 1.18537 TT Muraoka
q 1.5958474 (2000.0) P Q
n 0.15260881 Peri. 0.07256 +0.10127504 -0.85723943
a 3.4680310 Node 84.12488 +0.91250895 -0.12211829
e 0.5398405 Incl. 30.49919 +0.39632156 +0.50022762
P 6.46
>From 214 observations 1975-1994, mean residual 0".99. Nongravitational
parameters A1 = +0.01 +/- 0.03, A2 = -0.0962 +/- 0.0010.
|